Regional Weather Roundup
Issued by NWS Memphis, TN

Home | Current Version | Previous Version | Text Only | Print | Product List | Glossary On
Versions: 1 2 3 4 5 6 7 8 9 10 11 12 13 14 15 16 17 18 19 20 21 22 23 24 25 26 27 28 29 30 31 32 33 34 35 36 37 38 39 40 41 42 43 44 45 46 47 48 49 50
000
ASUS44 KMEG 300510
RWRMEG
MEMPHIS CWA HOURLY WEATHER ROUNDUP
NATIONAL WEATHER SERVICE MEMPHIS TN
1200 AM CDT WED JUL 30 2014

...WEST TENNESSEE...

CITY           SKY/WX    TMP DP  RH WIND       PRES   REMARKS
MEMPHIS INTL   CLEAR     66  56  70 CALM      30.11S
NWS MEMPHIS      N/A     62 N/A N/A MISG        N/A
JACKSON        CLEAR     58  55  90 CALM      30.11R
LEXINGTON      CLEAR     57  55  94 CALM      30.10S
SAVANNAH       CLEAR     56  56 100 CALM      30.11S
DYERSBURG      CLEAR     61  50  67 CALM      30.12S
UNION CITY     CLEAR     59  57  94 CALM      30.10S
PARIS          CLEAR     53  52  97 CALM      30.12R


...EASTERN ARKANSAS...

CITY           SKY/WX    TMP DP  RH WIND       PRES   REMARKS
JONESBORO      CLEAR     63  59  87 CALM      30.11S
WEST MEMPHIS   CLEAR     63  61  93 CALM      30.10S
BATESVILLE     CLEAR     70  59  68 CALM      30.11R
NEWPORT        CLEAR     68  63  84 SE3       30.12R
WALNUT RIDGE   CLEAR     66  61  82 SE6       30.10S
BLYTHEVILLE    CLEAR     64  58  80 CALM      30.11S
SEARCY         CLEAR     66  63  90 CALM      30.11S
STUTTGART      CLEAR     70  61  73 SE6       30.10S
PINE BLUFF     MOCLDY    68  63  84 CALM      30.10S
MONTICELLO     PTCLDY    68  62  81 CALM      30.09S


...NORTH MISSISSIPPI...

CITY           SKY/WX    TMP DP  RH WIND       PRES   REMARKS
TUPELO         CLEAR     63  57  81 CALM      30.10S
OLIVE BRANCH   CLEAR     63  63 100 CALM      30.12S
CLARKSDALE     CLEAR     64  61  88 CALM      30.11S
CORINTH        CLEAR     59  57  94 CALM      30.11R
GRENADA        CLEAR     61  59  94 CALM      30.10F
GREENWOOD      CLEAR     63  60  90 CALM      30.10S
COLUMBUS       CLEAR     61  58  89 NW1       30.09S
STARKVILLE     FAIR      59  57  94 CALM      30.10R
GOLDEN TRIANGL CLEAR     63  55  77 NW5       30.10S


...SOUTHEAST MISSOURI...

CITY           SKY/WX    TMP DP  RH WIND       PRES   REMARKS
WEST PLAINS    CLEAR     66  58  75 CALM      30.13R
POPLAR BLUFF   CLEAR     62  57  83 CALM      30.10R
CAPE GIRARDEAU CLEAR     62  58  86 CALM      30.11R


...NORTHWEST ALABAMA...

CITY           SKY/WX    TMP DP  RH WIND       PRES   REMARKS
MUSCLE SHOALS  CLEAR     64  56  75 CALM      30.11R


...MIDDLE TENNESSEE...

CITY           SKY/WX    TMP DP  RH WIND       PRES   REMARKS
NASHVILLE      CLEAR     64  55  72 CALM      30.10S
CLARKSVILLE    CLEAR     62  55  77 CALM      30.10S
DICKSON        CLEAR     61  54  77 CALM      30.11R
COLUMBIA       CLEAR     61  57  88 CALM      30.09S
LEWISBURG      CLEAR     57  54  90 CALM      30.10R


...WESTERN KENTUCKY...

CITY           SKY/WX    TMP DP  RH WIND       PRES   REMARKS
PADUCAH        CLEAR     60  56  86 SW3       30.09S
FORT CAMPBELL  CLEAR     60  54  79 CALM      30.10S


...CENTRAL ARKANSAS...

CITY           SKY/WX    TMP DP  RH WIND       PRES   REMARKS
LITTLE ROCK    MOCLDY    69  61  75 CALM      30.10R


SKY/WX REPORTED AS FAIR MEANS FEW OR NO CLOUDS BELOW
12 THOUSAND FEET.



USA.gov is the U.S. government's official web portal to all federal, state and local government web resources and services.